BBS weather

Blackbushe Airport
Yateley, England, United Kingdom

Public forecast

Using degrees Celsius for public forecast. Weather courtesy of forecast.io.

METAR (pilot weather report)

Closest report is Farnborough Airport, 3.9 nm (7.3 km) SE. Retrieved 2018/12/15 12:20 UTC (39 minutes ago):

EGLF 151220Z 13013KT 090V160 8000 SCT011 BKN030 02/01 Q1010

TAF (pilot weather forecast)

Forecast is more than 12 hours old.

Closest forecast is Farnborough Airport, 3.9 nm (7.3 km) SE. Retrieved 2016/04/18 18:00 UTC (3 years ago):

TAF EGLF 181658Z 1818/1821 26008KT 9999 BKN040